Location: M?lepalle
(16.7207°N, 80.6929°E)
Time: 17:51:31
(UTC+00:00)

Daily predictions for brighter satellites

Satellite Brightness Start Highest point End
(mag) Time Altitude Azimuth Time Altitude Azimuth Time Altitude Azimuth
MOS 1 Rocket 4.1 13:29:28 10° NE 13:33:59 34° E 13:38:42 10° SSE
SL-14 R/B 4.1 13:31:53 10° SSE 13:35:14 29° E 13:38:38 10° NNE
Atlas Centaur 2 3.7 13:31:34 10° WNW 13:35:47 30° NNW 13:40:58 10° NE
Meteor 1-24 Rocket 4.1 13:31:07 10° SSE 13:36:28 45° E 13:41:59 10° NNE
SL-24 R/B 4.4 13:31:57 10° NNE 13:37:16 73° E 13:41:51 10° S
Myojo/LAPS 3.4 13:34:45 10° WNW 13:38:17 50° SSW 13:40:52 10° SE
Cosmos 2082 4.0 13:33:46 10° N 13:39:08 47° ENE 13:44:31 10° SE
Cosmos 2360 Rocket 3.4 13:37:56 10° SSE 13:41:54 20° ESE 13:45:52 10° ENE
Cosmos 2227 Rocket 2.4 13:36:21 10° NNW 13:41:59 78° WSW 13:47:36 10° SSE
Delta 142 4.3 13:39:25 10° WNW 13:44:34 49° NNE 13:48:46 10° E
Cosmos 1553 Rocket 4.0 13:38:54 10° N 13:44:59 89° E 13:51:07 10° S
Cosmos 1437 3.6 13:45:42 10° SSW 13:48:36 50° W 13:51:32 10° N
DELTA 2 R/B (1) 3.5 13:44:44 10° SW 13:50:14 67° SE 13:55:46 10° ENE
Exosat Rocket 4.5 13:45:52 10° NNW 13:50:43 49° WSW 13:55:43 10° S
Cosmos 1340 Rocket 4.3 13:47:39 10° NNW 13:51:22 39° W 13:55:03 10° SSW
HJ-1C 3.4 13:49:06 10° SSE 13:52:20 58° ENE 13:55:36 10° N
S3M 4.0 13:46:02 10° N 13:52:24 72° E 13:58:44 10° S
SL-16 R/B 2.3 13:54:25 10° SSW 14:00:05 86° WNW 14:05:46 10° NNE
CZ-2C R/B 3.4 13:55:29 10° SSE 14:01:13 64° ENE 14:06:49 10° N
Cosmos 1818 3.7 13:56:08 10° S 14:01:20 51° ESE 14:06:34 10° NE
ARGOS 3.7 13:56:53 10° SE 14:01:54 40° ENE 14:06:55 10° N
CZ-2C R/B 4.5 13:57:54 10° NE 14:02:11 33° E 14:06:25 10° SSE
Cosmos 1726 Rocket 4.3 13:58:31 10° NNE 14:02:33 34° E 14:05:53 14° SE
GPS 2-15 Rocket1 3.6 13:58:11 10° WNW 14:03:04 60° N 14:07:47 11° E
Meteor 2-21 4.5 14:03:26 10° S 14:09:32 61° E 14:15:36 10° NNE
USA 215 3.3 14:03:18 10° NE 14:09:38 52° SE 14:15:55 10° SSW
GPS 2-18 Rocket1 2.8 14:06:26 10° WSW 14:10:06 88° S 14:12:59 15° ENE
Cosmos 1626 2.6 14:08:28 10° SSW 14:12:06 61° W 14:15:45 10° N
SL-08 RB Rocket 4.5 14:10:06 18° SE 14:12:39 32° ENE 14:16:37 10° NNE
ATLAS 5 CENTAUR R/B 1.2 14:10:59 10° SSW 14:14:57 71° ESE 14:18:58 10° NNE
CZ-2C R/B 2.5 14:12:22 10° NNE 14:17:38 69° ESE 14:22:47 10° S
Hubble Space Telescope 1.3 14:16:58 10° SW 14:20:49 38° SSE 14:22:19 28° ESE
Cosmos 1244 Rocket 4.4 14:17:40 10° S 14:23:44 68° E 14:29:48 10° N
Cosmos 1898 Rocket 3.9 14:22:16 10° NNW 14:27:23 62° WSW 14:32:27 10° S
GEOS 3 Rocket 3.6 14:24:21 10° NE 14:29:43 74° ESE 14:35:00 10° SSW
Ariane Rocket 2.9 14:28:51 19° SSE 14:32:34 76° ENE 14:37:38 10° N
Cosmos 2058 Rocket 3.1 14:33:27 10° N 14:37:52 58° E 14:39:18 38° SE
IRS-1A Rocket 4.1 14:34:05 20° SSE 14:38:05 81° ENE 14:43:35 10° N
DMSP B5D2-2 4.4 14:33:50 10° N 14:38:59 67° WNW 14:44:08 10° SSW
Cosmos 1626 Rocket 3.4 14:36:01 18° S 14:39:17 78° E 14:43:43 10° N
USA 186 2.4 14:41:37 31° SSW 14:42:56 55° W 14:46:13 10° NNW
H-2A R/B 3.0 14:40:17 10° S 14:45:26 47° W 14:50:40 10° NNW
NOSS 3-1 (C) 4.2 14:37:28 10° NNW 14:45:55 77° ENE 14:51:11 29° SSE
MOS 1 4.2 14:43:59 27° SSE 14:47:16 82° ENE 14:52:55 10° N
Cosmos 2322 Rocket 3.8 14:42:30 10° SW 14:47:32 34° WNW 14:52:35 10° N
Cosmos 2237 4.5 14:43:56 10° SSW 14:49:36 71° WNW 14:55:18 10° N
Resurs 1-3 4.2 14:50:56 38° ENE 14:50:56 38° ENE 14:54:43 10° N
Centaur Rocket 4.5 14:33:26 10° W 14:52:07 69° SSW 14:54:38 40° SE
SPOT 3 Rocket 3.8 14:52:29 43° E 14:53:07 45° ENE 14:58:03 10° N
IUS-17 SRM-1 4.0 14:40:10 10° WNW 14:53:10 50° SW 14:54:21 39° S
H-2A ROCKET BODY 4.0 14:51:01 10° NW 14:55:13 34° NNE 15:09:30 10° E
Timation 1 Rocket 4.2 14:49:32 10° NNW 14:55:30 89° ENE 14:57:52 39° SSE
Palapa B4 Rocket 4.0 14:49:42 10° WSW 14:58:14 59° SSE 14:59:37 48° ESE
Cosmos 2315 Rocket 4.4 14:53:03 10° NNW 14:59:17 62° W 15:04:32 15° S
SJ 16-02 4.2 14:57:44 10° WNW 14:59:38 13° W 15:01:31 10° WSW
USA 229 DEB 3.9 14:52:52 10° NNW 15:00:28 83° ENE 15:03:44 39° SSE
USA 229 3.9 14:52:57 10° NNW 15:00:33 82° ENE 15:03:48 39° SSE
NOSS 3-3 (A) 3.6 14:57:11 10° SSW 15:02:39 64° ESE 15:08:23 10° NNE
NOSS 3-3 (C) 3.6 15:00:01 30° S 15:02:45 63° ESE 15:08:30 10° NNE
Cosmos 2298 Rocket 4.0 15:01:19 10° N 15:06:34 62° ENE 15:06:47 61° E
COSMOS 2428 4.2 15:09:51 21° NE 15:09:51 21° NE 15:11:54 10° NE
OAO 3 Copernicus 4.5 15:04:45 10° WSW 15:09:47 69° NNW 15:11:45 37° NE
Cosmos 2322 3.5 15:08:39 39° S 15:10:52 80° ESE 15:16:35 10° NNE
NOSS 3-1 (A) 4.2 15:02:36 10° NNW 15:11:03 72° ENE 15:14:09 45° SE
SJ-6B 4.0 15:11:25 34° WSW 15:12:05 36° W 15:15:43 10° NNW
Cosmos 1300 3.9 15:12:24 10° NNW 15:15:57 38° W 15:16:03 38° W
EXPRESS MD2 4.3 15:12:15 10° NW 15:16:35 76° SW 15:17:58 56° SSE
Cosmos 2285 Rocket 4.2 15:12:21 10° NNW 15:18:33 66° WSW 15:20:37 43° SSW
Cosmos 2333 4.1 15:21:02 48° SSW 15:22:40 80° WNW 15:28:19 10° NNE
Cosmos 2219 Rocket 3.0 15:25:54 37° NE 15:25:54 37° NE 15:29:16 10° NNE
Cosmos 2360 Rocket 3.9 15:20:38 10° SW 15:25:33 31° WNW 15:30:30 10° N
Atlas Centaur 2 4.3 15:21:27 10° NW 15:26:05 23° N 15:31:06 11° NE
Nadezhda 1 Rocket 4.3 15:21:42 10° N 15:27:06 50° ENE 15:27:06 50° ENE
DELTA-4 R/B 3.9 15:28:05 10° WSW 15:32:17 64° SSE 15:51:45 10° E
Cosmos 2333 Rocket 2.5 15:33:48 59° NNE 15:33:48 59° NNE 15:38:20 10° NNE
Cosmos 2263 Rocket 2.4 15:29:41 10° NNW 15:35:08 64° WSW 15:35:08 64° WSW
Meteor 2-1 Rocket 4.4 15:34:08 10° N 15:39:25 73° N 15:39:25 73° N
Resurs 01 Rocket 3.4 15:52:59 29° NW 15:52:59 29° NW 15:55:19 10° NNW
Milstar 3 Cent rocket 3.9 15:59:12 10° W 16:01:44 26° WSW 16:01:44 26° WSW
Atlas Centaur 2 4.5 17:10:29 10° NW 17:13:39 25° NNW 17:13:39 25° NNW
CZ-4C R/B 4.2 20:07:59 10° N 20:15:18 37° ENE 20:15:19 37° ENE
Cosmos 2082 Rocket 3.3 21:26:00 37° E 21:26:00 37° E 21:30:51 10° NE
Meteor 1-11 Rocket 4.2 21:35:02 55° NNE 21:35:02 55° NNE 21:39:22 10° N
IDEFIX/ARIANE 42P 3.4 21:28:52 10° NNE 21:32:31 46° NNE 21:32:31 46° NNE
Cosmos 2233 Rocket 4.0 21:38:40 75° NE 21:38:40 75° NE 21:44:23 10° N
ARIANE 5 R/B 4.2 21:41:48 10° N 21:44:03 24° NNW 21:44:03 24° NNW
Cosmos 1833 Rocket 3.2 21:48:45 51° NNW 21:48:45 51° NNW 21:53:04 10° N
ATLAS 2A CENTAUR R/B 3.9 21:51:35 14° ENE 21:51:35 14° ENE 21:52:13 10° ENE
Cosmos 1900 4.4 22:01:03 70° ENE 22:01:03 70° ENE 22:05:31 10° NNE
CZ-4C R/B 4.2 21:56:25 10° NW 22:00:18 27° WNW 22:00:18 27° WNW
Tsikada Rocket 3.9 22:01:00 10° N 22:07:25 87° W 22:09:50 42° S
CZ-3A R/B 3.6 22:07:14 32° SSE 22:07:41 33° SE 22:17:04 10° ENE
Centaur AC-72 2.9 22:09:06 40° W 22:12:02 85° N 22:17:50 10° E
H-2A R/B 2.6 22:11:40 34° SE 22:13:25 60° ENE 22:17:49 10° N
COSMOS 2441 4.2 22:09:41 10° N 22:14:24 73° WNW 22:14:24 73° WNW
deb Chang Zheng 4 4.0 22:10:46 10° NNE 22:14:57 57° ESE 22:15:36 50° SE
ATLAS 2A CENTAUR R/B 3.2 22:23:33 28° WNW 22:25:37 38° NNW 22:28:29 10° NE
MSX 4.1 22:21:21 10° N 22:26:49 47° WNW 22:27:44 44° WSW
GPS 2-14 Rocket1 2.7 22:26:41 68° NW 22:26:56 71° N 22:31:05 10° ENE
Cosmos 1544 4.4 22:27:20 25° SE 22:28:49 37° E 22:32:09 10° NNE
Cosmos 1743 2.5 22:30:10 77° WNW 22:30:10 77° WNW 22:33:51 10° N
SWAS 4.3 22:31:55 58° SSW 22:32:44 88° ESE 22:37:01 10° NNE
Cosmos 1464 Rocket 4.0 22:28:52 19° S 22:33:37 83° E 22:40:00 10° N
Meteor 2-4 Rocket 4.5 22:30:17 10° NNW 22:35:31 34° W 22:35:31 34° W
Cosmos 2034 Rocket 4.4 22:32:52 10° S 22:38:56 60° E 22:44:58 10° NNE
Cosmos 1656 4.0 22:34:18 10° N 22:39:40 62° ENE 22:45:03 10° SSE
PSLV R/B 3.8 22:36:12 10° N 22:40:20 49° WNW 22:40:59 45° WSW
CENTAUR R/B 4.4 22:37:26 10° SSE 22:41:02 19° ESE 22:44:51 10° ENE
Meteor 1-23 Rocket 4.4 22:36:38 10° N 22:42:22 76° E 22:48:09 10° S
Landsat 5 3.4 22:42:17 34° SSW 22:43:53 61° WSW 22:47:54 10° NNW
GPS 2-12 Rocket1 3.1 22:41:48 30° WNW 22:43:57 69° N 22:48:24 10° E
Meteor 1-13 Rocket 4.4 22:38:47 10° NNW 22:44:13 47° W 22:46:59 26° SSW
Cosmos 1484 Rocket 4.4 22:41:20 10° NE 22:44:47 31° E 22:48:10 10° SSE
NATO 3D Rocket 4.3 22:40:36 18° WNW 22:45:44 54° N 22:50:52 10° ENE
PAYLOAD A 4.3 22:41:52 10° N 22:47:03 52° WNW 22:49:37 29° SW
Cosmos 1378 Rocket 3.9 22:43:50 10° N 22:48:12 67° E 22:52:35 10° SSE
Hubble Space Telescope 0.6 22:46:59 33° WNW 22:48:42 74° SSW 22:52:49 10° ESE
DELTA 2 R/B (1) 4.0 22:43:17 10° NW 22:48:51 65° NE 22:54:24 10° ESE
Cosmos 1782 Rocket 3.5 22:51:36 17° S 22:55:04 87° W 22:59:32 10° N
ERS-2 3.4 22:56:40 24° WNW 22:56:40 24° WNW 22:58:55 10° NW
NOSS 3-2 (C) 4.5 22:55:01 10° S 22:59:54 36° ESE 23:04:59 10° NE
SWIFT 3.1 22:58:06 17° WNW 23:01:11 49° N 23:05:19 10° ENE
SJ-6F 4.4 22:57:21 10° N 23:01:23 62° WNW 23:04:11 19° SSW
CZ-2C R/B 2.9 22:57:14 10° N 23:01:38 38° WNW 23:03:53 23° SW
Orbus 7S? 3.8 22:54:14 10° NNW 23:01:53 83° WSW 23:05:18 10° SSE
CZ-3B R/B 2.7 22:58:02 17° W 23:04:03 50° NNW 23:07:10 10° NE
Cosmos 1674 Rocket 3.8 23:03:41 10° NNW 23:07:47 43° W 23:11:51 10° SSW
Cosmos 2082 Rocket 3.8 23:07:53 15° W 23:09:38 17° WNW 23:13:21 10° NNW
Cosmos 921 Rocket 3.3 23:06:56 10° N 23:11:16 69° ENE 23:15:31 10° SSE
NOSS 3-2 (A) 3.1 23:13:00 13° SSW 23:17:45 73° WNW 23:23:27 10° NNE
ADEOS 4.3 23:17:14 10° N 23:21:52 33° WNW 23:26:17 11° SW
Okean 2 3.8 23:19:03 10° N 23:23:05 64° E 23:27:06 10° SSE
H-2A R/B 3.7 23:20:49 10° NNE 23:24:54 44° E 23:28:49 10° S
SL-27 R/B 2.5 23:21:56 10° SSW 23:25:29 64° WNW 23:29:00 10° N
Cosmos 1975 3.8 23:23:28 13° SW 23:26:19 28° W 23:29:45 10° NNW
Okean 2 Rocket 3.2 23:23:03 10° S 23:27:27 78° E 23:31:49 10° N
Cosmos 1697 Rocket 2.7 23:22:59 10° NNW 23:28:36 85° WSW 23:34:12 10° SSE
Delta 198 3.5 23:24:25 10° WNW 23:29:05 79° NNE 23:33:03 10° ESE
Spot 2 4.4 23:24:15 10° NNE 23:29:07 90° SW 23:34:11 10° SSW
Cosmos 1867 3.6 23:26:49 10° SSW 23:32:13 80° WNW 23:37:39 10° NNE
METEOR-M 4.1 23:28:38 10° N 23:33:56 75° WNW 23:39:15 10° SSW
H-2A R/B (2) 3.4 23:32:46 10° NW 23:34:50 15° NNW 23:36:39 10° NNE
SJ-12 3.9 23:31:35 10° N 23:35:41 89° W 23:39:46 10° SSW
ERBS 3.9 23:35:00 10° S 23:37:58 30° ESE 23:40:55 10° NE
ALOS 2.5 23:33:33 10° N 23:38:04 52° WNW 23:42:35 10° SSW
Cosmos 1242 Rocket 2.9 23:35:36 10° NNW 23:38:50 39° W 23:42:06 10° SSW
ARIANE 44L R/B 3.8 23:40:46 10° S 23:41:30 11° SSE 23:42:22 10° SSE
CZ-4B R/B 3.5 23:46:18 10° N 23:50:06 40° WNW 23:54:06 10° SSW
Cosmos 2151 Rocket 3.6 23:45:58 10° S 23:50:29 81° W 23:55:01 10° N
USA 238 DEB 4.2 23:45:15 10° SW 23:51:21 40° WNW 23:57:34 10° N
USA 238 4.2 23:45:21 10° SW 23:51:26 41° WNW 23:57:39 10° N
